Zapata, TX

9:17 PM CDT on August 17, 2017 (GMT -0500)
Zapata

Weather History for KAPY - July, 2014

Change the Weather History Date:

Thursday, July 3, 2014

  Actual Average (KLRD) Record (KLRD)
Temperature  
Mean Temperature 86 °F -  
Max Temperature 100 °F 95 °F 110 °F (2005)
Min Temperature 72 °F 74 °F 66 °F (1924)
Cooling Degree Days 21    
Growing Degree Days 36 (Base 50)    
Moisture  
Dew Point 61 °F    
Average Humidity 47    
Maximum Humidity 83    
Minimum Humidity 20    
Precipitation  
Precipitation 0.00 in - - ()
Sea Level Pressure  
Sea Level Pressure 30.03 in    
Wind  
Wind Speed 8 mph (SE)    
Max Wind Speed 17 mph    
Max Gust Speed 24 mph    
Visibility 9 miles    
Events      
Averages and records for this station are not official NWS values.
T = Trace of Precipitation, MM = Missing Value Source: NWS Daily Summary

Daily Weather History Graph

Daily Weather History Graph

Search for Another Location

Airport or City:

Trip Planner

Search our weather history database for the weather conditions in past years. The results will help you decide how hot, cold, wet, or windy it might be!

Date:

Astronomy

Jul. 03, 2014 Rise Set
Actual Time 6:47 AM CDT 8:35 PM CDT
Civil Twilight 6:21 AM CDT 9:01 PM CDT
Nautical Twilight 5:49 AM CDT 9:32 PM CDT
Astronomical Twilight 5:16 AM CDT 10:06 PM CDT
Moon 12:14 PM CDT (7/3) No Moon Set
Length of Visible Light 14h 40m
Length of Day
13h 47m
Waxing Crescent, 33% of the Moon is Illuminated
Jul 3
Waxing Crescent
Jul 5
First Quarter
Jul 12
Full
Jul 18
Last Quarter
Jul 26
New

Hourly Weather History & Observations

Time (CDT) Temp. Heat Index Dew Point Humidity Pressure Visibility Wind Dir Wind Speed Gust Speed Precip Events Conditions
12:15 AM 82.9 °F 84.6 °F 64.8 °F 54% 30.03 in 10.0 mi SE 12.7 mph 18.4 mph N/A   Clear
12:35 AM 82.4 °F 83.5 °F 63.1 °F 52% 30.04 in 10.0 mi SE 11.5 mph 19.6 mph N/A   Clear
12:55 AM 81.7 °F 82.7 °F 62.6 °F 52% 30.03 in 10.0 mi SE 10.4 mph - N/A   Clear
1:15 AM 81.0 °F 82.1 °F 62.6 °F 53% 30.03 in 10.0 mi SE 6.9 mph - N/A   Clear
1:35 AM 80.2 °F 81.5 °F 62.8 °F 55% 30.04 in 10.0 mi SE 9.2 mph - N/A   Clear
1:55 AM 79.7 °F - 63.0 °F 56% 30.04 in 10.0 mi ESE 5.8 mph - N/A   Clear
2:15 AM 78.6 °F - 63.5 °F 60% 30.04 in 10.0 mi ESE 3.5 mph - N/A   Clear
2:35 AM 77.9 °F - 63.7 °F 61% 30.04 in 10.0 mi Calm Calm - N/A   Clear
2:55 AM 77.5 °F - 64.0 °F 63% 30.04 in 10.0 mi SE 4.6 mph - N/A   Clear
3:15 AM 77.2 °F - 64.4 °F 65% 30.04 in 10.0 mi ESE 4.6 mph - N/A   Clear
3:35 AM 76.5 °F - 64.6 °F 67% 30.03 in 10.0 mi ESE 5.8 mph - N/A   Clear
3:55 AM 76.3 °F - 64.9 °F 68% 30.03 in 10.0 mi ESE 3.5 mph - N/A   Clear
4:15 AM 75.6 °F - 65.1 °F 70% 30.03 in 10.0 mi ESE 3.5 mph - N/A   Clear
4:35 AM 74.8 °F - 64.9 °F 71% 30.03 in 10.0 mi East 3.5 mph - N/A   Clear
4:55 AM 74.7 °F - 65.5 °F 73% 30.03 in 10.0 mi ESE 4.6 mph - N/A   Clear
5:15 AM 74.5 °F - 66.2 °F 75% 30.03 in 10.0 mi ESE 4.6 mph - N/A   Clear
5:35 AM 74.5 °F - 66.7 °F 77% 30.03 in 10.0 mi ESE 4.6 mph - N/A   Clear
5:55 AM 73.9 °F - 66.7 °F 78% 30.03 in 10.0 mi ESE 3.5 mph - N/A   Clear
6:15 AM 73.2 °F - 66.6 °F 80% 30.03 in 10.0 mi ESE 3.5 mph - N/A   Clear
6:35 AM 72.9 °F - 67.1 °F 82% 30.04 in 10.0 mi ESE 3.5 mph - N/A   Clear
6:55 AM 72.7 °F - 67.1 °F 83% 30.05 in 10.0 mi Calm Calm - N/A   Clear
7:15 AM 73.2 °F - 67.5 °F 82% 30.06 in 10.0 mi East 3.5 mph - N/A   Clear
7:35 AM 74.3 °F - 68.0 °F 81% 30.06 in 10.0 mi ESE 4.6 mph - N/A   Clear
7:55 AM 75.9 °F - 68.2 °F 77% 30.07 in 10.0 mi ESE 8.1 mph - N/A   Clear
8:15 AM 77.5 °F - 68.0 °F 72% 30.07 in 10.0 mi SE 5.8 mph - N/A   Clear
8:35 AM 79.5 °F - 67.8 °F 67% 30.08 in 10.0 mi ESE 5.8 mph - N/A   Clear
8:55 AM 80.8 °F 83.2 °F 67.1 °F 63% 30.09 in 10.0 mi SE 5.8 mph - N/A   Clear
9:15 AM 82.9 °F 85.0 °F 65.8 °F 56% 30.09 in 10.0 mi SE 6.9 mph - N/A   Clear
9:35 AM 83.8 °F 85.3 °F 64.8 °F 52% 30.08 in 10.0 mi SE 6.9 mph - N/A   Clear
9:55 AM 84.9 °F 86.3 °F 64.2 °F 50% 30.08 in 10.0 mi SSE 8.1 mph - N/A   Clear
10:15 AM 86.4 °F 87.0 °F 62.8 °F 45% 30.08 in 10.0 mi SE 10.4 mph 16.1 mph N/A   Clear
10:35 AM 87.8 °F 88.5 °F 62.6 °F 43% 30.08 in 10.0 mi SE 10.4 mph 16.1 mph N/A   Clear
10:55 AM 88.5 °F 88.9 °F 61.9 °F 41% 30.08 in 10.0 mi SSE 10.4 mph 16.1 mph N/A   Clear
11:15 AM 89.6 °F 89.2 °F 60.4 °F 37% 30.07 in 10.0 mi South 11.5 mph 17.3 mph N/A   Clear
11:35 AM 90.7 °F 90.4 °F 60.3 °F 36% 30.07 in 10.0 mi SE 8.1 mph - N/A   Clear
11:55 AM 91.8 °F 91.2 °F 59.5 °F 34% 30.07 in 10.0 mi SSE 8.1 mph 19.6 mph N/A   Clear
12:15 PM 92.7 °F 91.5 °F 58.3 °F 31% 30.07 in 10.0 mi SSE 6.9 mph 16.1 mph N/A   Clear
12:35 PM 93.7 °F 93.0 °F 58.5 °F 31% 30.06 in 10.0 mi SE 11.5 mph 18.4 mph N/A   Clear
12:55 PM 95.2 °F 94.3 °F 58.3 °F 29% 30.05 in 10.0 mi SE 5.8 mph - N/A   Clear
1:15 PM 95.7 °F 95.1 °F 58.6 °F 29% 30.05 in 10.0 mi SSE 5.8 mph 17.3 mph N/A   Clear
1:35 PM 96.1 °F 95.2 °F 57.6 °F 28% 30.05 in 10.0 mi East 12.7 mph 19.6 mph N/A   Clear
1:55 PM 96.8 °F 95.8 °F 58.1 °F 27% 30.04 in 10.0 mi SSE 12.7 mph 16.1 mph N/A   Scattered Clouds
2:15 PM 97.2 °F 96.4 °F 57.6 °F 27% 30.03 in 10.0 mi ESE 10.4 mph - N/A   Scattered Clouds
2:35 PM 95.9 °F 94.6 °F 57.2 °F 27% 30.03 in 10.0 mi SE 9.2 mph - N/A   Scattered Clouds
2:55 PM 97.7 °F 96.3 °F 56.3 °F 25% 30.02 in 7.0 mi SE 10.4 mph 18.4 mph N/A   Scattered Clouds
3:15 PM 99.5 °F 98.0 °F 55.0 °F 23% 30.02 in 10.0 mi ESE 10.4 mph 16.1 mph N/A   Scattered Clouds
3:35 PM 99.5 °F 97.6 °F 54.0 °F 22% 30.01 in 10.0 mi East 9.2 mph 18.4 mph N/A   Scattered Clouds
3:55 PM 99.9 °F 98.1 °F 54.5 °F 22% 30.00 in 10.0 mi SE 11.5 mph 18.4 mph N/A   Clear
4:15 PM 100.0 °F - 52.9 °F 21% 29.99 in 7.0 mi ESE 13.8 mph 17.3 mph N/A   Clear
4:35 PM 100.2 °F - 52.5 °F 20% 29.99 in 7.0 mi SE 10.4 mph 18.4 mph N/A   Clear
4:55 PM 99.9 °F - 52.7 °F 21% 29.98 in 7.0 mi SSE 10.4 mph 18.4 mph N/A   Clear
5:15 PM 99.9 °F - 52.7 °F 21% 29.98 in 7.0 mi SE 13.8 mph 23.0 mph N/A   Scattered Clouds
5:35 PM 99.5 °F - 51.8 °F 20% 29.97 in 7.0 mi East 15.0 mph 23.0 mph N/A   Scattered Clouds
5:55 PM 99.7 °F - 51.8 °F 20% 29.97 in 7.0 mi ESE 10.4 mph 20.7 mph N/A   Clear
6:15 PM 98.6 °F - 52.9 °F 21% 29.97 in 7.0 mi ESE 15.0 mph 23.0 mph N/A   Clear
6:35 PM 97.3 °F 96.6 °F 57.7 °F 27% 29.97 in 7.0 mi ESE 17.3 mph 23.0 mph N/A   Clear
6:55 PM 96.6 °F 94.8 °F 55.2 °F 25% 29.97 in 7.0 mi ESE 17.3 mph 24.2 mph N/A   Clear
7:15 PM 95.9 °F 94.2 °F 55.4 °F 26% 29.98 in 7.0 mi SE 10.4 mph 21.9 mph N/A   Clear
7:35 PM 95.0 °F 93.4 °F 55.9 °F 27% 29.99 in 7.0 mi ESE 16.1 mph 20.7 mph N/A   Clear
7:55 PM 93.9 °F 92.2 °F 56.5 °F 28% 29.99 in 7.0 mi ESE 13.8 mph 20.7 mph N/A   Clear